Location: Beuerbach
(48.1459°N, 10.9174°E)
Time: 21:27:07
(UTC+00:00)

Cosmos 1825 - Pass Details

Date: 23 May 2024
Orbit: 440 x 443 km, 82.5° (Epoch: 14 June)

Event Time Altitude Azimuth Distance (km) Brightness Sun altitude
Exits shadow 02:35:30 - 186° (S) 2,044 4.8 -7.7°
Reaches altitude 10° 02:36:39 10° 186° (S) 1,560 4.2 -7.5°
Maximum altitude 02:40:03 83° 98° (E) 454 2.0 -7.1°
Drops below altitude 10° 02:43:29 10° 11° (N) 1,579 5.5 -6.7°
Sets 02:45:34 0° 11° (N) 2,457 6.6 -6.4°
